TimePST,TemperatureF,Dew PointF,Humidity,Sea Level PressureIn,VisibilityMPH,Wind Direction,Wind SpeedMPH,Gust SpeedMPH,PrecipitationIn,Events,Conditions,WindDirDegrees,DateUTC
12:53 AM,48.0,46.0,93,30.20,6.0,ESE,11.5,-,0.03,Rain,Light Rain,110,2013-12-01 08:53:00
1:53 AM,50.0,46.9,89,30.18,10.0,SSE,11.5,-,0.06,Rain,Light Rain,160,2013-12-01 09:53:00
2:53 AM,50.0,46.9,89,30.14,10.0,South,12.7,-,0.03,Rain,Light Rain,170,2013-12-01 10:53:00
3:53 AM,51.1,48.0,89,30.12,10.0,South,21.9,31.1,0.00,Rain,Light Rain,190,2013-12-01 11:53:00
4:53 AM,52.0,48.9,89,30.10,10.0,South,17.3,34.5,0.01,Rain,Light Rain,190,2013-12-01 12:53:00
5:53 AM,52.0,48.9,89,30.10,10.0,SSW,19.6,28.8,0.02,Rain,Light Rain,200,2013-12-01 13:53:00
6:53 AM,53.1,50.0,89,30.11,10.0,SSW,18.4,-,0.04,Rain,Light Rain,200,2013-12-01 14:53:00
7:43 AM,53.1,50.0,89,30.10,10.0,SSW,19.6,27.6,0.01,,Overcast,200,2013-12-01 15:43:00
7:53 AM,53.1,50.0,89,30.11,10.0,SSW,15.0,-,0.01,,Overcast,200,2013-12-01 15:53:00
8:34 AM,53.1,51.1,93,30.12,10.0,SSW,19.6,-,0.00,,Overcast,200,2013-12-01 16:34:00
8:53 AM,54.0,51.1,90,30.12,10.0,SSW,20.7,27.6,0.00,,Overcast,200,2013-12-01 16:53:00
9:41 AM,55.0,51.1,86,30.11,10.0,South,23.0,-,N/A,,Overcast,190,2013-12-01 17:41:00
9:53 AM,55.0,51.1,86,30.11,10.0,South,23.0,29.9,N/A,,Overcast,190,2013-12-01 17:53:00
10:53 AM,55.9,52.0,87,30.12,10.0,South,16.1,25.3,N/A,,Overcast,190,2013-12-01 18:53:00
11:53 AM,55.9,52.0,87,30.09,10.0,SSW,16.1,-,0.00,,Overcast,200,2013-12-01 19:53:00
12:53 PM,55.9,52.0,87,30.07,10.0,SSW,13.8,-,0.00,,Overcast,200,2013-12-01 20:53:00
1:53 PM,55.9,52.0,87,30.04,5.0,SSW,17.3,25.3,0.03,Rain,Light Rain,200,2013-12-01 21:53:00
2:53 PM,57.0,51.1,81,30.02,9.0,SSW,19.6,29.9,0.04,Rain,Light Rain,200,2013-12-01 22:53:00
3:53 PM,57.0,51.1,81,30.01,10.0,SSW,16.1,26.5,0.02,,Mostly Cloudy,210,2013-12-01 23:53:00
4:53 PM,55.9,50.0,80,29.98,10.0,SW,18.4,29.9,0.02,,Overcast,220,2013-12-02 00:53:00
5:53 PM,55.9,50.0,80,29.97,10.0,SW,16.1,-,0.00,Rain,Light Rain,230,2013-12-02 01:53:00
6:53 PM,55.0,50.0,83,29.96,10.0,SW,16.1,-,0.01,Rain,Light Rain,220,2013-12-02 02:53:00
7:03 PM,55.0,50.0,83,29.95,9.0,SW,19.6,25.3,0.00,Rain,Light Rain,220,2013-12-02 03:03:00
7:47 PM,53.6,51.8,94,29.94,4.0,SSW,15.0,26.5,0.09,Rain,Rain,210,2013-12-02 03:47:00
7:53 PM,54.0,51.1,90,29.94,5.0,SW,15.0,26.5,0.10,Rain,Rain,220,2013-12-02 03:53:00
8:53 PM,53.1,51.1,93,29.94,4.0,WSW,13.8,-,0.12,Rain,Rain,240,2013-12-02 04:53:00
9:05 PM,53.1,51.1,93,29.94,2.5,West,15.0,-,0.06,Rain,Rain,260,2013-12-02 05:05:00
9:11 PM,53.1,51.1,93,29.94,3.0,WNW,12.7,-,0.08,Rain,Rain,290,2013-12-02 05:11:00
9:20 PM,53.1,51.1,93,29.95,2.5,WNW,8.1,-,0.17,Rain,Heavy Rain,290,2013-12-02 05:20:00
9:34 PM,52.0,51.1,97,29.95,5.0,WNW,5.8,-,0.23,Rain,Rain,290,2013-12-02 05:34:00
9:45 PM,52.0,51.1,97,29.95,9.0,WNW,8.1,-,0.24,Rain,Light Rain,290,2013-12-02 05:45:00
9:53 PM,52.0,51.1,97,29.95,9.0,WNW,6.9,-,0.25,Rain,Light Rain,300,2013-12-02 05:53:00
10:53 PM,52.0,50.0,93,29.94,10.0,SW,6.9,-,0.05,Rain,Light Rain,230,2013-12-02 06:53:00
11:53 PM,52.0,48.9,89,29.93,10.0,WSW,4.6,-,0.01,,Overcast,240,2013-12-02 07:53:00